owner,sensor,date,latitude,longitude,vertical_datum,sea_water_practical_salinity,qcFlag 
ENP,ioos.station.NOAA.NDBC:LBRF1:1,2013-11-01T00:00:00Z,25.4840,-81.1330,1.5,4.3,11111222 
ENP,ioos.station.NOAA.NDBC:LBRF1:1,2013-11-01T01:00:00Z,25.4840,-81.1330,1.5,3.7,11111222 
ENP,ioos.station.NOAA.NDBC:LBRF1:1,2013-11-01T02:00:00Z,25.4840,-81.1330,1.5,8.7,11111222 
ENP,ioos.station.NOAA.NDBC:LBRF1:1,2013-11-01T04:00:00Z,25.4840,-81.1330,1.5,21.8,11111222 
ENP,ioos.station.NOAA.NDBC:LBRF1:1,2013-11-01T05:00:00Z,25.4840,-81.1330,1.5,24.7,11111222 
ENP,ioos.station.NOAA.NDBC:LBRF1:1,2013-11-01T06:00:00Z,25.4840,-81.1330,1.5,26.5,11111222 
ENP,ioos.station.NOAA.NDBC:LBRF1:1,2013-11-01T07:00:00Z,25.4840,-81.1330,1.5,27.3,11111222 
ENP,ioos.station.NOAA.NDBC:LBRF1:1,2013-11-01T08:00:00Z,25.4840,-81.1330,1.5,27.1,11111222 
ENP,ioos.station.NOAA.NDBC:LBRF1:1,2013-11-01T09:00:00Z,25.4840,-81.1330,1.5,25.5,11111222 
ENP,ioos.station.NOAA.NDBC:LBRF1:1,2013-11-01T10:00:00Z,25.4840,-81.1330,1.5,23.4,11111222 
ENP,ioos.station.NOAA.NDBC:LBRF1:1,2013-11-01T11:00:00Z,25.4840,-81.1330,1.5,20.3,11111222 
ENP,ioos.station.NOAA.NDBC:LBRF1:1,2013-11-01T12:00:00Z,25.4840,-81.1330,1.5,14.0,11111222 
ENP,ioos.station.NOAA.NDBC:LBRF1:1,2013-11-01T13:00:00Z,25.4840,-81.1330,1.5,9.2,11111222 
ENP,ioos.station.NOAA.NDBC:LBRF1:1,2013-11-01T14:00:00Z,25.4840,-81.1330,1.5,7.9,11111222 
ENP,ioos.station.NOAA.NDBC:LBRF1:1,2013-11-01T15:00:00Z,25.4840,-81.1330,1.5,11.5,11111222 
ENP,ioos.station.NOAA.NDBC:LBRF1:1,2013-11-01T16:00:00Z,25.4840,-81.1330,1.5,19.3,11111222 
ENP,ioos.station.NOAA.NDBC:LBRF1:1,2013-11-01T17:00:00Z,25.4840,-81.1330,1.5,24.7,11111222 
ENP,ioos.station.NOAA.NDBC:LBRF1:1,2013-11-01T18:00:00Z,25.4840,-81.1330,1.5,25.5,11111222 
ENP,ioos.station.NOAA.NDBC:LBRF1:1,2013-11-05T10:00:00Z,25.4840,-81.1330,1.5,18.4,11111222 
ENP,ioos.station.NOAA.NDBC:LBRF1:1,2013-11-05T11:00:00Z,25.4840,-81.1330,1.5,12.8,11111222 
ENP,ioos.station.NOAA.NDBC:LBRF1:1,2013-11-05T12:00:00Z,25.4840,-81.1330,1.5,8.4,11111222 
ENP,ioos.station.NOAA.NDBC:LBRF1:1,2013-11-05T13:00:00Z,25.4840,-81.1330,1.5,5.0,11111222 
ENP,ioos.station.NOAA.NDBC:LBRF1:1,2013-11-05T14:00:00Z,25.4840,-81.1330,1.5,3.3,11111222 
ENP,ioos.station.NOAA.NDBC:LBRF1:1,2013-11-05T15:00:00Z,25.4840,-81.1330,1.5,2.9,11111222 
ENP,ioos.station.NOAA.NDBC:LBRF1:1,2013-11-05T16:00:00Z,25.4840,-81.1330,1.5,2.5,11111222 
ENP,ioos.station.NOAA.NDBC:LBRF1:1,2013-11-05T17:00:00Z,25.4840,-81.1330,1.5,2.2,11111222 
ENP,ioos.station.NOAA.NDBC:LBRF1:1,2013-11-05T18:00:00Z,25.4840,-81.1330,1.5,2.0,11111222 
ENP,ioos.station.NOAA.NDBC:LBRF1:1,2013-11-05T19:00:00Z,25.4840,-81.1330,1.5,2.0,11111222 
ENP,ioos.station.NOAA.NDBC:LBRF1:1,2013-11-05T20:00:00Z,25.4840,-81.1330,1.5,2.3,11111222 
ENP,ioos.station.NOAA.NDBC:LBRF1:1,2013-11-05T21:00:00Z,25.4840,-81.1330,1.5,3.5,11111222 
ENP,ioos.station.NOAA.NDBC:LBRF1:1,2013-11-05T22:00:00Z,25.4840,-81.1330,1.5,7.7,11111222 
ENP,ioos.station.NOAA.NDBC:LBRF1:1,2013-11-05T23:00:00Z,25.4840,-81.1330,1.5,9.7,11111222 
ENP,ioos.station.NOAA.NDBC:LBRF1:1,2013-11-06T00:00:00Z,25.4840,-81.1330,1.5,5.5,11111222 
ENP,ioos.station.NOAA.NDBC:LBRF1:1,2013-11-06T01:00:00Z,25.4840,-81.1330,1.5,3.8,11111222 
ENP,ioos.station.NOAA.NDBC:LBRF1:1,2013-11-06T02:00:00Z,25.4840,-81.1330,1.5,2.7,11111222 
ENP,ioos.station.NOAA.NDBC:LBRF1:1,2013-11-06T04:00:00Z,25.4840,-81.1330,1.5,2.0,11111222 
ENP,ioos.station.NOAA.NDBC:LBRF1:1,2013-11-06T05:00:00Z,25.4840,-81.1330,1.5,2.0,11111222 
ENP,ioos.station.NOAA.NDBC:LBRF1:1,2013-11-06T06:00:00Z,25.4840,-81.1330,1.5,4.9,11111222 
ENP,ioos.station.NOAA.NDBC:LBRF1:1,2013-11-06T07:00:00Z,25.4840,-81.1330,1.5,10.6,11111222 
ENP,ioos.station.NOAA.NDBC:LBRF1:1,2013-11-06T08:00:00Z,25.4840,-81.1330,1.5,20.1,11111222 
ENP,ioos.station.NOAA.NDBC:LBRF1:1,2013-11-06T09:00:00Z,25.4840,-81.1330,1.5,23.2,11111222 
ENP,ioos.station.NOAA.NDBC:LBRF1:1,2013-11-06T10:00:00Z,25.4840,-81.1330,1.5,24.0,11111222 
ENP,ioos.station.NOAA.NDBC:LBRF1:1,2013-11-06T11:00:00Z,25.4840,-81.1330,1.5,24.1,11111222 
ENP,ioos.station.NOAA.NDBC:LBRF1:1,2013-11-06T12:00:00Z,25.4840,-81.1330,1.5,22.3,11111222 
ENP,ioos.station.NOAA.NDBC:LBRF1:1,2013-11-06T13:00:00Z,25.4840,-81.1330,1.5,20.8,11111222 
ENP,ioos.station.NOAA.NDBC:LBRF1:1,2013-11-06T14:00:00Z,25.4840,-81.1330,1.5,15.4,11111222 
ENP,ioos.station.NOAA.NDBC:LBRF1:1,2013-11-06T15:00:00Z,25.4840,-81.1330,1.5,9.1,11111222 
ENP,ioos.station.NOAA.NDBC:LBRF1:1,2013-11-06T16:00:00Z,25.4840,-81.1330,1.5,5.0,11111222 
ENP,ioos.station.NOAA.NDBC:LBRF1:1,2013-11-06T17:00:00Z,25.4840,-81.1330,1.5,3.4,11111222 
ENP,ioos.station.NOAA.NDBC:LBRF1:1,2013-11-06T18:00:00Z,25.4840,-81.1330,1.5,2.7,11111222 
ENP,ioos.station.NOAA.NDBC:LBRF1:1,2013-11-06T19:00:00Z,25.4840,-81.1330,1.5,2.8,11111222 
ENP,ioos.station.NOAA.NDBC:LBRF1:1,2013-11-06T20:00:00Z,25.4840,-81.1330,1.5,5.1,11111222 
ENP,ioos.station.NOAA.NDBC:LBRF1:1,2013-11-06T21:00:00Z,25.4840,-81.1330,1.5,16.4,11111222 
ENP,ioos.station.NOAA.NDBC:LBRF1:1,2013-11-06T22:00:00Z,25.4840,-81.1330,1.5,20.0,11111222 
ENP,ioos.station.NOAA.NDBC:LBRF1:1,2013-11-06T23:00:00Z,25.4840,-81.1330,1.5,21.2,11111222 
ENP,ioos.station.NOAA.NDBC:LBRF1:1,2013-11-07T00:00:00Z,25.4840,-81.1330,1.5,22.0,11111222 
ENP,ioos.station.NOAA.NDBC:LBRF1:1,2013-11-07T01:00:00Z,25.4840,-81.1330,1.5,21.7,11111222 
ENP,ioos.station.NOAA.NDBC:LBRF1:1,2013-11-07T02:00:00Z,25.4840,-81.1330,1.5,19.8,11111222 
ENP,ioos.station.NOAA.NDBC:LBRF1:1,2013-11-07T04:00:00Z,25.4840,-81.1330,1.5,11.9,11111222 
ENP,ioos.station.NOAA.NDBC:LBRF1:1,2013-11-07T05:00:00Z,25.4840,-81.1330,1.5,11.2,11111222 
ENP,ioos.station.NOAA.NDBC:LBRF1:1,2013-11-07T06:00:00Z,25.4840,-81.1330,1.5,14.3,11111222 
ENP,ioos.station.NOAA.NDBC:LBRF1:1,2013-11-07T07:00:00Z,25.4840,-81.1330,1.5,17.9,11111222 
ENP,ioos.station.NOAA.NDBC:LBRF1:1,2013-11-07T08:00:00Z,25.4840,-81.1330,1.5,20.8,11111222 
ENP,ioos.station.NOAA.NDBC:LBRF1:1,2013-11-07T09:00:00Z,25.4840,-81.1330,1.5,24.0,11111222 
ENP,ioos.station.NOAA.NDBC:LBRF1:1,2013-11-07T10:00:00Z,25.4840,-81.1330,1.5,26.0,11111222 
ENP,ioos.station.NOAA.NDBC:LBRF1:1,2013-11-07T11:00:00Z,25.4840,-81.1330,1.5,26.6,11111222 
ENP,ioos.station.NOAA.NDBC:LBRF1:1,2013-11-07T12:00:00Z,25.4840,-81.1330,1.5,26.8,11111222 
ENP,ioos.station.NOAA.NDBC:LBRF1:1,2013-11-07T13:00:00Z,25.4840,-81.1330,1.5,25.7,11111222 
ENP,ioos.station.NOAA.NDBC:LBRF1:1,2013-11-07T14:00:00Z,25.4840,-81.1330,1.5,22.9,11111222 
ENP,ioos.station.NOAA.NDBC:LBRF1:1,2013-11-07T15:00:00Z,25.4840,-81.1330,1.5,20.5,11111222 
ENP,ioos.station.NOAA.NDBC:LBRF1:1,2013-11-07T16:00:00Z,25.4840,-81.1330,1.5,16.9,11111222 
ENP,ioos.station.NOAA.NDBC:LBRF1:1,2013-11-07T17:00:00Z,25.4840,-81.1330,1.5,10.9,11111222 
ENP,ioos.station.NOAA.NDBC:LBRF1:1,2013-11-07T18:00:00Z,25.4840,-81.1330,1.5,8.3,11111222 
ENP,ioos.station.NOAA.NDBC:LBRF1:1,2013-11-07T19:00:00Z,25.4840,-81.1330,1.5,7.4,11111222 
ENP,ioos.station.NOAA.NDBC:LBRF1:1,2013-11-07T20:00:00Z,25.4840,-81.1330,1.5,8.3,11111222 
ENP,ioos.station.NOAA.NDBC:LBRF1:1,2013-11-07T21:00:00Z,25.4840,-81.1330,1.5,15.3,11111222 
ENP,ioos.station.NOAA.NDBC:LBRF1:1,2013-11-07T22:00:00Z,25.4840,-81.1330,1.5,22.3,11111222 
ENP,ioos.station.NOAA.NDBC:LBRF1:1,2013-11-07T23:00:00Z,25.4840,-81.1330,1.5,24.2,11111222 
ENP,ioos.station.NOAA.NDBC:LBRF1:1,2013-11-08T00:00:00Z,25.4840,-81.1330,1.5,24.7,11111222 
ENP,ioos.station.NOAA.NDBC:LBRF1:1,2013-11-08T01:00:00Z,25.4840,-81.1330,1.5,24.9,11111222 
ENP,ioos.station.NOAA.NDBC:LBRF1:1,2013-11-08T02:00:00Z,25.4840,-81.1330,1.5,24.8,11111222 
ENP,ioos.station.NOAA.NDBC:LBRF1:1,2013-11-08T04:00:00Z,25.4840,-81.1330,1.5,20.6,11111222 
ENP,ioos.station.NOAA.NDBC:LBRF1:1,2013-11-08T05:00:00Z,25.4840,-81.1330,1.5,15.6,11111222 
ENP,ioos.station.NOAA.NDBC:LBRF1:1,2013-11-08T06:00:00Z,25.4840,-81.1330,1.5,12.8,11111222 
ENP,ioos.station.NOAA.NDBC:LBRF1:1,2013-11-08T07:00:00Z,25.4840,-81.1330,1.5,13.8,11111222 
ENP,ioos.station.NOAA.NDBC:LBRF1:1,2013-11-08T08:00:00Z,25.4840,-81.1330,1.5,19.5,11111222 
ENP,ioos.station.NOAA.NDBC:LBRF1:1,2013-11-08T09:00:00Z,25.4840,-81.1330,1.5,21.5,11111222 
ENP,ioos.station.NOAA.NDBC:LBRF1:1,2013-11-08T10:00:00Z,25.4840,-81.1330,1.5,23.7,11111222 
ENP,ioos.station.NOAA.NDBC:LBRF1:1,2013-11-08T11:00:00Z,25.4840,-81.1330,1.5,24.7,11111222 
ENP,ioos.station.NOAA.NDBC:LBRF1:1,2013-11-08T12:00:00Z,25.4840,-81.1330,1.5,24.9,11111222 
ENP,ioos.station.NOAA.NDBC:LBRF1:1,2013-11-08T13:00:00Z,25.4840,-81.1330,1.5,24.7,11111222 
ENP,ioos.station.NOAA.NDBC:LBRF1:1,2013-11-08T14:00:00Z,25.4840,-81.1330,1.5,23.1,11111222 
ENP,ioos.station.NOAA.NDBC:LBRF1:1,2013-11-08T15:00:00Z,25.4840,-81.1330,1.5,21.3,11111222 
ENP,ioos.station.NOAA.NDBC:LBRF1:1,2013-11-08T16:00:00Z,25.4840,-81.1330,1.5,15.5,11111222 
ENP,ioos.station.NOAA.NDBC:LBRF1:1,2013-11-08T17:00:00Z,25.4840,-81.1330,1.5,9.6,11111222 
ENP,ioos.station.NOAA.NDBC:LBRF1:1,2013-11-08T18:00:00Z,25.4840,-81.1330,1.5,6.5,11111222 
ENP,ioos.station.NOAA.NDBC:LBRF1:1,2013-11-08T19:00:00Z,25.4840,-81.1330,1.5,5.0,11111222 
ENP,ioos.station.NOAA.NDBC:LBRF1:1,2013-11-08T20:00:00Z,25.4840,-81.1330,1.5,4.5,11111222 
ENP,ioos.station.NOAA.NDBC:LBRF1:1,2013-11-08T21:00:00Z,25.4840,-81.1330,1.5,4.6,11111222 
ENP,ioos.station.NOAA.NDBC:LBRF1:1,2013-11-08T22:00:00Z,25.4840,-81.1330,1.5,5.5,11111222 
ENP,ioos.station.NOAA.NDBC:LBRF1:1,2013-11-08T23:00:00Z,25.4840,-81.1330,1.5,12.2,11111222 
ENP,ioos.station.NOAA.NDBC:LBRF1:1,2013-11-09T00:00:00Z,25.4840,-81.1330,1.5,18.2,11111222 
ENP,ioos.station.NOAA.NDBC:LBRF1:1,2013-11-09T01:00:00Z,25.4840,-81.1330,1.5,19.9,11111222 
ENP,ioos.station.NOAA.NDBC:LBRF1:1,2013-11-09T02:00:00Z,25.4840,-81.1330,1.5,15.9,11111222 
ENP,ioos.station.NOAA.NDBC:LBRF1:1,2013-11-09T04:00:00Z,25.4840,-81.1330,1.5,6.6,11111222 
ENP,ioos.station.NOAA.NDBC:LBRF1:1,2013-11-09T05:00:00Z,25.4840,-81.1330,1.5,4.8,11111222 
ENP,ioos.station.NOAA.NDBC:LBRF1:1,2013-11-09T06:00:00Z,25.4840,-81.1330,1.5,4.1,11111222 
ENP,ioos.station.NOAA.NDBC:LBRF1:1,2013-11-09T07:00:00Z,25.4840,-81.1330,1.5,3.8,11111222 
ENP,ioos.station.NOAA.NDBC:LBRF1:1,2013-11-09T08:00:00Z,25.4840,-81.1330,1.5,3.7,11111222 
ENP,ioos.station.NOAA.NDBC:LBRF1:1,2013-11-09T09:00:00Z,25.4840,-81.1330,1.5,3.8,11111222 
ENP,ioos.station.NOAA.NDBC:LBRF1:1,2013-11-09T10:00:00Z,25.4840,-81.1330,1.5,5.7,11111222 
ENP,ioos.station.NOAA.NDBC:LBRF1:1,2013-11-09T11:00:00Z,25.4840,-81.1330,1.5,11.3,11111222 
ENP,ioos.station.NOAA.NDBC:LBRF1:1,2013-11-09T12:00:00Z,25.4840,-81.1330,1.5,15.9,11111222 
ENP,ioos.station.NOAA.NDBC:LBRF1:1,2013-11-09T13:00:00Z,25.4840,-81.1330,1.5,18.2,11111222 
ENP,ioos.station.NOAA.NDBC:LBRF1:1,2013-11-09T14:00:00Z,25.4840,-81.1330,1.5,15.6,11111222 
ENP,ioos.station.NOAA.NDBC:LBRF1:1,2013-11-09T15:00:00Z,25.4840,-81.1330,1.5,11.1,11111222 
ENP,ioos.station.NOAA.NDBC:LBRF1:1,2013-11-09T16:00:00Z,25.4840,-81.1330,1.5,7.0,11111222 
ENP,ioos.station.NOAA.NDBC:LBRF1:1,2013-11-09T17:00:00Z,25.4840,-81.1330,1.5,4.3,11111222 
ENP,ioos.station.NOAA.NDBC:LBRF1:1,2013-11-09T18:00:00Z,25.4840,-81.1330,1.5,3.6,11111222 
ENP,ioos.station.NOAA.NDBC:LBRF1:1,2013-11-09T19:00:00Z,25.4840,-81.1330,1.5,3.2,11111222 
ENP,ioos.station.NOAA.NDBC:LBRF1:1,2013-11-09T20:00:00Z,25.4840,-81.1330,1.5,3.0,11111222 
ENP,ioos.station.NOAA.NDBC:LBRF1:1,2013-11-09T21:00:00Z,25.4840,-81.1330,1.5,2.9,11111222 
ENP,ioos.station.NOAA.NDBC:LBRF1:1,2013-11-09T22:00:00Z,25.4840,-81.1330,1.5,2.9,11111222 
ENP,ioos.station.NOAA.NDBC:LBRF1:1,2013-11-09T23:00:00Z,25.4840,-81.1330,1.5,3.3,11111222 
ENP,ioos.station.NOAA.NDBC:LBRF1:1,2013-11-10T00:00:00Z,25.4840,-81.1330,1.5,5.8,11111222 
ENP,ioos.station.NOAA.NDBC:LBRF1:1,2013-11-10T01:00:00Z,25.4840,-81.1330,1.5,11.7,11111222 
ENP,ioos.station.NOAA.NDBC:LBRF1:1,2013-11-10T02:00:00Z,25.4840,-81.1330,1.5,14.3,11111222 
ENP,ioos.station.NOAA.NDBC:LBRF1:1,2013-11-10T04:00:00Z,25.4840,-81.1330,1.5,9.8,11111222 
ENP,ioos.station.NOAA.NDBC:LBRF1:1,2013-11-10T05:00:00Z,25.4840,-81.1330,1.5,6.3,11111222 
ENP,ioos.station.NOAA.NDBC:LBRF1:1,2013-11-10T06:00:00Z,25.4840,-81.1330,1.5,4.1,11111222 
ENP,ioos.station.NOAA.NDBC:LBRF1:1,2013-11-10T07:00:00Z,25.4840,-81.1330,1.5,3.4,11111222 
ENP,ioos.station.NOAA.NDBC:LBRF1:1,2013-11-10T08:00:00Z,25.4840,-81.1330,1.5,3.0,11111222 
ENP,ioos.station.NOAA.NDBC:LBRF1:1,2013-11-10T09:00:00Z,25.4840,-81.1330,1.5,2.8,11111222 
ENP,ioos.station.NOAA.NDBC:LBRF1:1,2013-11-10T10:00:00Z,25.4840,-81.1330,1.5,2.9,11111222 
ENP,ioos.station.NOAA.NDBC:LBRF1:1,2013-11-10T11:00:00Z,25.4840,-81.1330,1.5,6.0,11111222 
ENP,ioos.station.NOAA.NDBC:LBRF1:1,2013-11-10T12:00:00Z,25.4840,-81.1330,1.5,11.0,11111222 
ENP,ioos.station.NOAA.NDBC:LBRF1:1,2013-11-10T13:00:00Z,25.4840,-81.1330,1.5,16.1,11111222 
ENP,ioos.station.NOAA.NDBC:LBRF1:1,2013-11-10T14:00:00Z,25.4840,-81.1330,1.5,19.2,11111222 
ENP,ioos.station.NOAA.NDBC:LBRF1:1,2013-11-10T15:00:00Z,25.4840,-81.1330,1.5,19.6,11111222 
ENP,ioos.station.NOAA.NDBC:LBRF1:1,2013-11-10T16:00:00Z,25.4840,-81.1330,1.5,15.8,11111222 
ENP,ioos.station.NOAA.NDBC:LBRF1:1,2013-11-10T17:00:00Z,25.4840,-81.1330,1.5,12.2,11111222 
ENP,ioos.station.NOAA.NDBC:LBRF1:1,2013-11-10T18:00:00Z,25.4840,-81.1330,1.5,8.3,11111222 
ENP,ioos.station.NOAA.NDBC:LBRF1:1,2013-11-10T19:00:00Z,25.4840,-81.1330,1.5,4.5,11111222 
ENP,ioos.station.NOAA.NDBC:LBRF1:1,2013-11-10T20:00:00Z,25.4840,-81.1330,1.5,3.0,11111222 
ENP,ioos.station.NOAA.NDBC:LBRF1:1,2013-11-10T21:00:00Z,25.4840,-81.1330,1.5,2.7,11111222 
ENP,ioos.station.NOAA.NDBC:LBRF1:1,2013-11-10T22:00:00Z,25.4840,-81.1330,1.5,2.5,11111222 
ENP,ioos.station.NOAA.NDBC:LBRF1:1,2013-11-10T23:00:00Z,25.4840,-81.1330,1.5,2.6,11111222 
ENP,ioos.station.NOAA.NDBC:LBRF1:1,2013-11-11T00:00:00Z,25.4840,-81.1330,1.5,3.5,11111222 
ENP,ioos.station.NOAA.NDBC:LBRF1:1,2013-11-11T01:00:00Z,25.4840,-81.1330,1.5,11.0,11111222 
ENP,ioos.station.NOAA.NDBC:LBRF1:1,2013-11-11T02:00:00Z,25.4840,-81.1330,1.5,16.2,11111222 
ENP,ioos.station.NOAA.NDBC:LBRF1:1,2013-11-11T04:00:00Z,25.4840,-81.1330,1.5,18.9,11111222 
ENP,ioos.station.NOAA.NDBC:LBRF1:1,2013-11-11T05:00:00Z,25.4840,-81.1330,1.5,14.9,11111222 
ENP,ioos.station.NOAA.NDBC:LBRF1:1,2013-11-11T06:00:00Z,25.4840,-81.1330,1.5,11.5,11111222 
ENP,ioos.station.NOAA.NDBC:LBRF1:1,2013-11-11T07:00:00Z,25.4840,-81.1330,1.5,5.9,11111222 
ENP,ioos.station.NOAA.NDBC:LBRF1:1,2013-11-11T08:00:00Z,25.4840,-81.1330,1.5,3.2,11111222 
ENP,ioos.station.NOAA.NDBC:LBRF1:1,2013-11-11T09:00:00Z,25.4840,-81.1330,1.5,2.7,11111222 
ENP,ioos.station.NOAA.NDBC:LBRF1:1,2013-11-11T10:00:00Z,25.4840,-81.1330,1.5,2.5,11111222 
ENP,ioos.station.NOAA.NDBC:LBRF1:1,2013-11-11T11:00:00Z,25.4840,-81.1330,1.5,2.4,11111222 
ENP,ioos.station.NOAA.NDBC:LBRF1:1,2013-11-11T12:00:00Z,25.4840,-81.1330,1.5,2.4,11111222 
ENP,ioos.station.NOAA.NDBC:LBRF1:1,2013-11-11T13:00:00Z,25.4840,-81.1330,1.5,5.4,11111222 
ENP,ioos.station.NOAA.NDBC:LBRF1:1,2013-11-11T14:00:00Z,25.4840,-81.1330,1.5,10.3,11111222 
ENP,ioos.station.NOAA.NDBC:LBRF1:1,2013-11-11T15:00:00Z,25.4840,-81.1330,1.5,14.3,11111222 
ENP,ioos.station.NOAA.NDBC:LBRF1:1,2013-11-11T16:00:00Z,25.4840,-81.1330,1.5,16.1,11111222 
ENP,ioos.station.NOAA.NDBC:LBRF1:1,2013-11-11T17:00:00Z,25.4840,-81.1330,1.5,11.3,11111222 
ENP,ioos.station.NOAA.NDBC:LBRF1:1,2013-11-11T18:00:00Z,25.4840,-81.1330,1.5,7.4,11111222 
ENP,ioos.station.NOAA.NDBC:LBRF1:1,2013-11-11T19:00:00Z,25.4840,-81.1330,1.5,3.8,11111222 
ENP,ioos.station.NOAA.NDBC:LBRF1:1,2013-11-11T20:00:00Z,25.4840,-81.1330,1.5,2.7,11111222 
ENP,ioos.station.NOAA.NDBC:LBRF1:1,2013-11-11T21:00:00Z,25.4840,-81.1330,1.5,2.2,11111222 
ENP,ioos.station.NOAA.NDBC:LBRF1:1,2013-11-11T22:00:00Z,25.4840,-81.1330,1.5,1.9,11111222 
ENP,ioos.station.NOAA.NDBC:LBRF1:1,2013-11-11T23:00:00Z,25.4840,-81.1330,1.5,1.8,11111222 
ENP,ioos.station.NOAA.NDBC:LBRF1:1,2013-11-12T00:00:00Z,25.4840,-81.1330,1.5,1.9,11111222 
ENP,ioos.station.NOAA.NDBC:LBRF1:1,2013-11-12T01:00:00Z,25.4840,-81.1330,1.5,3.9,11111222 
ENP,ioos.station.NOAA.NDBC:LBRF1:1,2013-11-12T02:00:00Z,25.4840,-81.1330,1.5,10.0,11111222 
ENP,ioos.station.NOAA.NDBC:LBRF1:1,2013-11-12T03:00:00Z,25.4840,-81.1330,1.5,14.9,11111222 
ENP,ioos.station.NOAA.NDBC:LBRF1:1,2013-11-12T04:00:00Z,25.4840,-81.1330,1.5,17.9,11111222 
ENP,ioos.station.NOAA.NDBC:LBRF1:1,2013-11-12T05:00:00Z,25.4840,-81.1330,1.5,19.0,11111222 
ENP,ioos.station.NOAA.NDBC:LBRF1:1,2013-11-12T06:00:00Z,25.4840,-81.1330,1.5,17.8,11111222 
ENP,ioos.station.NOAA.NDBC:LBRF1:1,2013-11-12T07:00:00Z,25.4840,-81.1330,1.5,14.1,11111222 
ENP,ioos.station.NOAA.NDBC:LBRF1:1,2013-11-12T08:00:00Z,25.4840,-81.1330,1.5,10.6,11111222 
ENP,ioos.station.NOAA.NDBC:LBRF1:1,2013-11-12T09:00:00Z,25.4840,-81.1330,1.5,6.0,11111222 
ENP,ioos.station.NOAA.NDBC:LBRF1:1,2013-11-12T10:00:00Z,25.4840,-81.1330,1.5,3.4,11111222 
ENP,ioos.station.NOAA.NDBC:LBRF1:1,2013-11-12T11:00:00Z,25.4840,-81.1330,1.5,2.4,11111222 
ENP,ioos.station.NOAA.NDBC:LBRF1:1,2013-11-12T12:00:00Z,25.4840,-81.1330,1.5,2.4,11111222 
ENP,ioos.station.NOAA.NDBC:LBRF1:1,2013-11-12T13:00:00Z,25.4840,-81.1330,1.5,3.8,11111222 
ENP,ioos.station.NOAA.NDBC:LBRF1:1,2013-11-12T14:00:00Z,25.4840,-81.1330,1.5,9.7,11111222 
ENP,ioos.station.NOAA.NDBC:LBRF1:1,2013-11-12T15:00:00Z,25.4840,-81.1330,1.5,16.3,11111222 
ENP,ioos.station.NOAA.NDBC:LBRF1:1,2013-11-12T16:00:00Z,25.4840,-81.1330,1.5,21.4,11111222 
ENP,ioos.station.NOAA.NDBC:LBRF1:1,2013-11-12T17:00:00Z,25.4840,-81.1330,1.5,23.0,11111222 
ENP,ioos.station.NOAA.NDBC:LBRF1:1,2013-11-12T18:00:00Z,25.4840,-81.1330,1.5,23.5,11111222 
ENP,ioos.station.NOAA.NDBC:LBRF1:1,2013-11-12T19:00:00Z,25.4840,-81.1330,1.5,18.6,11111222 
ENP,ioos.station.NOAA.NDBC:LBRF1:1,2013-11-12T20:00:00Z,25.4840,-81.1330,1.5,16.9,11111222 
ENP,ioos.station.NOAA.NDBC:LBRF1:1,2013-11-12T21:00:00Z,25.4840,-81.1330,1.5,11.5,11111222 
ENP,ioos.station.NOAA.NDBC:LBRF1:1,2013-11-12T22:00:00Z,25.4840,-81.1330,1.5,6.3,11111222 
ENP,ioos.station.NOAA.NDBC:LBRF1:1,2013-11-12T23:00:00Z,25.4840,-81.1330,1.5,3.6,11111222 
ENP,ioos.station.NOAA.NDBC:LBRF1:1,2013-11-13T00:00:00Z,25.4840,-81.1330,1.5,3.2,11111222 
ENP,ioos.station.NOAA.NDBC:LBRF1:1,2013-11-13T01:00:00Z,25.4840,-81.1330,1.5,6.0,11111222 
ENP,ioos.station.NOAA.NDBC:LBRF1:1,2013-11-13T02:00:00Z,25.4840,-81.1330,1.5,12.6,11111222 
ENP,ioos.station.NOAA.NDBC:LBRF1:1,2013-11-13T04:00:00Z,25.4840,-81.1330,1.5,22.5,11111222 
ENP,ioos.station.NOAA.NDBC:LBRF1:1,2013-11-13T05:00:00Z,25.4840,-81.1330,1.5,24.1,11111222 
ENP,ioos.station.NOAA.NDBC:LBRF1:1,2013-11-13T06:00:00Z,25.4840,-81.1330,1.5,24.8,11111222 
ENP,ioos.station.NOAA.NDBC:LBRF1:1,2013-11-13T07:00:00Z,25.4840,-81.1330,1.5,23.5,11111222 
ENP,ioos.station.NOAA.NDBC:LBRF1:1,2013-11-13T08:00:00Z,25.4840,-81.1330,1.5,20.1,11111222 
ENP,ioos.station.NOAA.NDBC:LBRF1:1,2013-11-13T09:00:00Z,25.4840,-81.1330,1.5,15.9,11111222 
ENP,ioos.station.NOAA.NDBC:LBRF1:1,2013-11-13T10:00:00Z,25.4840,-81.1330,1.5,9.3,11111222 
ENP,ioos.station.NOAA.NDBC:LBRF1:1,2013-11-13T11:00:00Z,25.4840,-81.1330,1.5,4.6,11111222 
ENP,ioos.station.NOAA.NDBC:LBRF1:1,2013-11-13T12:00:00Z,25.4840,-81.1330,1.5,3.0,11111222 
ENP,ioos.station.NOAA.NDBC:LBRF1:1,2013-11-13T13:00:00Z,25.4840,-81.1330,1.5,2.5,11111222 
ENP,ioos.station.NOAA.NDBC:LBRF1:1,2013-11-13T14:00:00Z,25.4840,-81.1330,1.5,2.3,11111222 
ENP,ioos.station.NOAA.NDBC:LBRF1:1,2013-11-13T15:00:00Z,25.4840,-81.1330,1.5,2.4,11111222 
ENP,ioos.station.NOAA.NDBC:LBRF1:1,2013-11-13T16:00:00Z,25.4840,-81.1330,1.5,4.9,11111222 
ENP,ioos.station.NOAA.NDBC:LBRF1:1,2013-11-13T17:00:00Z,25.4840,-81.1330,1.5,10.0,11111222 
ENP,ioos.station.NOAA.NDBC:LBRF1:1,2013-11-13T18:00:00Z,25.4840,-81.1330,1.5,12.7,11111222 
ENP,ioos.station.NOAA.NDBC:LBRF1:1,2013-11-13T19:00:00Z,25.4840,-81.1330,1.5,6.1,11111222 
ENP,ioos.station.NOAA.NDBC:LBRF1:1,2013-11-13T20:00:00Z,25.4840,-81.1330,1.5,3.3,11111222 
ENP,ioos.station.NOAA.NDBC:LBRF1:1,2013-11-13T21:00:00Z,25.4840,-81.1330,1.5,2.4,11111222 
ENP,ioos.station.NOAA.NDBC:LBRF1:1,2013-11-13T22:00:00Z,25.4840,-81.1330,1.5,1.9,11111222 
ENP,ioos.station.NOAA.NDBC:LBRF1:1,2013-11-13T23:00:00Z,25.4840,-81.1330,1.5,1.6,11111222 
ENP,ioos.station.NOAA.NDBC:LBRF1:1,2013-11-14T00:00:00Z,25.4840,-81.1330,1.5,1.5,11111222 
ENP,ioos.station.NOAA.NDBC:LBRF1:1,2013-11-14T01:00:00Z,25.4840,-81.1330,1.5,1.4,11111222 
ENP,ioos.station.NOAA.NDBC:LBRF1:1,2013-11-14T02:00:00Z,25.4840,-81.1330,1.5,1.3,11111222 
ENP,ioos.station.NOAA.NDBC:LBRF1:1,2013-11-14T04:00:00Z,25.4840,-81.1330,1.5,1.4,11111222 
ENP,ioos.station.NOAA.NDBC:LBRF1:1,2013-11-14T05:00:00Z,25.4840,-81.1330,1.5,1.5,11111222 
ENP,ioos.station.NOAA.NDBC:LBRF1:1,2013-11-14T06:00:00Z,25.4840,-81.1330,1.5,1.5,11111222 
ENP,ioos.station.NOAA.NDBC:LBRF1:1,2013-11-14T07:00:00Z,25.4840,-81.1330,1.5,1.6,11111222 
ENP,ioos.station.NOAA.NDBC:LBRF1:1,2013-11-14T08:00:00Z,25.4840,-81.1330,1.5,1.6,11111222 
ENP,ioos.station.NOAA.NDBC:LBRF1:1,2013-11-14T09:00:00Z,25.4840,-81.1330,1.5,1.5,11111222 
ENP,ioos.station.NOAA.NDBC:LBRF1:1,2013-11-14T10:00:00Z,25.4840,-81.1330,1.5,1.5,11111222 
ENP,ioos.station.NOAA.NDBC:LBRF1:1,2013-11-14T11:00:00Z,25.4840,-81.1330,1.5,1.4,11111222 
ENP,ioos.station.NOAA.NDBC:LBRF1:1,2013-11-14T12:00:00Z,25.4840,-81.1330,1.5,1.3,11111222 
ENP,ioos.station.NOAA.NDBC:LBRF1:1,2013-11-14T13:00:00Z,25.4840,-81.1330,1.5,1.4,11111222 
ENP,ioos.station.NOAA.NDBC:LBRF1:1,2013-11-14T14:00:00Z,25.4840,-81.1330,1.5,1.4,11111222 
ENP,ioos.station.NOAA.NDBC:LBRF1:1,2013-11-14T15:00:00Z,25.4840,-81.1330,1.5,1.4,11111222 
ENP,ioos.station.NOAA.NDBC:LBRF1:1,2013-11-14T16:00:00Z,25.4840,-81.1330,1.5,1.4,11111222 
ENP,ioos.station.NOAA.NDBC:LBRF1:1,2013-11-14T17:00:00Z,25.4840,-81.1330,1.5,1.5,11111222 
ENP,ioos.station.NOAA.NDBC:LBRF1:1,2013-11-14T18:00:00Z,25.4840,-81.1330,1.5,2.2,11111222 
ENP,ioos.station.NOAA.NDBC:LBRF1:1,2013-11-14T19:00:00Z,25.4840,-81.1330,1.5,2.6,11111222 
ENP,ioos.station.NOAA.NDBC:LBRF1:1,2013-11-14T20:00:00Z,25.4840,-81.1330,1.5,2.8,11111222 
ENP,ioos.station.NOAA.NDBC:LBRF1:1,2013-11-14T21:00:00Z,25.4840,-81.1330,1.5,2.8,11111222 
ENP,ioos.station.NOAA.NDBC:LBRF1:1,2013-11-14T22:00:00Z,25.4840,-81.1330,1.5,2.7,11111222 
ENP,ioos.station.NOAA.NDBC:LBRF1:1,2013-11-14T23:00:00Z,25.4840,-81.1330,1.5,2.2,11111222 
ENP,ioos.station.NOAA.NDBC:LBRF1:1,2013-11-15T00:00:00Z,25.4840,-81.1330,1.5,2.0,11111222 
ENP,ioos.station.NOAA.NDBC:LBRF1:1,2013-11-15T01:00:00Z,25.4840,-81.1330,1.5,1.9,11111222 
ENP,ioos.station.NOAA.NDBC:LBRF1:1,2013-11-15T02:00:00Z,25.4840,-81.1330,1.5,4.3,11111222 
ENP,ioos.station.NOAA.NDBC:LBRF1:1,2013-11-15T04:00:00Z,25.4840,-81.1330,1.5,10.7,11111222 
ENP,ioos.station.NOAA.NDBC:LBRF1:1,2013-11-15T05:00:00Z,25.4840,-81.1330,1.5,16.3,11111222 
ENP,ioos.station.NOAA.NDBC:LBRF1:1,2013-11-15T06:00:00Z,25.4840,-81.1330,1.5,19.7,11111222 
ENP,ioos.station.NOAA.NDBC:LBRF1:1,2013-11-15T07:00:00Z,25.4840,-81.1330,1.5,21.0,11111222 
ENP,ioos.station.NOAA.NDBC:LBRF1:1,2013-11-15T08:00:00Z,25.4840,-81.1330,1.5,21.5,11111222 
ENP,ioos.station.NOAA.NDBC:LBRF1:1,2013-11-15T09:00:00Z,25.4840,-81.1330,1.5,20.5,11111222 
ENP,ioos.station.NOAA.NDBC:LBRF1:1,2013-11-15T10:00:00Z,25.4840,-81.1330,1.5,18.0,11111222 
ENP,ioos.station.NOAA.NDBC:LBRF1:1,2013-11-15T11:00:00Z,25.4840,-81.1330,1.5,14.7,11111222 
ENP,ioos.station.NOAA.NDBC:LBRF1:1,2013-11-15T12:00:00Z,25.4840,-81.1330,1.5,10.2,11111222 
ENP,ioos.station.NOAA.NDBC:LBRF1:1,2013-11-15T17:00:00Z,25.4840,-81.1330,1.5,16.9,11111222 
ENP,ioos.station.NOAA.NDBC:LBRF1:1,2013-11-15T18:00:00Z,25.4840,-81.1330,1.5,19.7,11111222 
ENP,ioos.station.NOAA.NDBC:LBRF1:1,2013-11-15T19:00:00Z,25.4840,-81.1330,1.5,22.1,11111222 
ENP,ioos.station.NOAA.NDBC:LBRF1:1,2013-11-15T20:00:00Z,25.4840,-81.1330,1.5,23.5,11111222 
ENP,ioos.station.NOAA.NDBC:LBRF1:1,2013-11-15T21:00:00Z,25.4840,-81.1330,1.5,23.0,11111222 
ENP,ioos.station.NOAA.NDBC:LBRF1:1,2013-11-15T22:00:00Z,25.4840,-81.1330,1.5,20.9,11111222 
ENP,ioos.station.NOAA.NDBC:LBRF1:1,2013-11-15T23:00:00Z,25.4840,-81.1330,1.5,19.7,11111222 
ENP,ioos.station.NOAA.NDBC:LBRF1:1,2013-11-16T00:00:00Z,25.4840,-81.1330,1.5,15.8,11111222 
ENP,ioos.station.NOAA.NDBC:LBRF1:1,2013-11-16T01:00:00Z,25.4840,-81.1330,1.5,13.0,11111222 